Year,Month,Day,Hour,Minute,Value (Times are PST for temperature in C)
2009,10,30,00,00,7.10
2009,10,30,00,01,7.10
2009,10,30,00,02,7.10
2009,10,30,00,03,7.10
2009,10,30,00,04,7.10
2009,10,30,00,05,7.10
2009,10,30,00,06,7.10
2009,10,30,00,07,7.10
2009,10,30,00,08,7.10
2009,10,30,00,09,7.10
2009,10,30,00,10,7.10
2009,10,30,00,11,7.10
2009,10,30,00,12,7.10
2009,10,30,00,13,7.10
2009,10,30,00,14,7.10
2009,10,30,00,15,7.10
2009,10,30,00,16,7.10
2009,10,30,00,17,7.10
2009,10,30,00,18,7.10
2009,10,30,00,19,7.10
2009,10,30,00,20,7.10
2009,10,30,00,21,7.10
2009,10,30,00,22,7.10
2009,10,30,00,23,7.10
2009,10,30,00,24,7.10
2009,10,30,00,25,7.10
2009,10,30,00,26,7.10
2009,10,30,00,27,7.20
2009,10,30,00,28,7.20
2009,10,30,00,29,7.20
2009,10,30,00,30,7.20
2009,10,30,00,31,7.20
2009,10,30,00,32,7.20
2009,10,30,00,33,7.20
2009,10,30,00,34,7.20
2009,10,30,00,35,7.20
2009,10,30,00,36,7.20
2009,10,30,00,37,7.20
2009,10,30,00,38,7.20
2009,10,30,00,39,7.20
2009,10,30,00,40,7.20
2009,10,30,00,41,7.20
2009,10,30,00,42,7.20
2009,10,30,00,43,7.20
2009,10,30,00,44,7.20
2009,10,30,00,45,7.20
2009,10,30,00,46,7.20
2009,10,30,00,47,7.20
2009,10,30,00,48,7.20
2009,10,30,00,49,7.20
2009,10,30,00,50,7.20
2009,10,30,00,51,7.20
2009,10,30,00,52,7.20
2009,10,30,00,53,7.20
2009,10,30,00,54,7.20
2009,10,30,00,55,7.20
2009,10,30,00,56,7.20
2009,10,30,00,57,7.20
2009,10,30,00,58,7.20
2009,10,30,00,59,7.20
2009,10,30,01,00,7.20
2009,10,30,01,01,7.20
2009,10,30,01,02,7.20
2009,10,30,01,03,7.20
2009,10,30,01,04,7.20
2009,10,30,01,05,7.20
2009,10,30,01,06,7.20
2009,10,30,01,07,7.20
2009,10,30,01,08,7.20
2009,10,30,01,09,7.20
2009,10,30,01,10,7.20
2009,10,30,01,11,7.20
2009,10,30,01,12,7.20
2009,10,30,01,13,7.20
2009,10,30,01,14,7.20
2009,10,30,01,15,7.20
2009,10,30,01,16,7.20
2009,10,30,01,17,7.20
2009,10,30,01,18,7.20
2009,10,30,01,19,7.20
2009,10,30,01,20,7.20
2009,10,30,01,21,7.20
2009,10,30,01,22,7.20
2009,10,30,01,23,7.20
2009,10,30,01,24,7.20
2009,10,30,01,25,7.20
2009,10,30,01,26,7.20
2009,10,30,01,27,7.20
2009,10,30,01,28,7.20
2009,10,30,01,29,7.20
2009,10,30,01,30,7.20
2009,10,30,01,31,7.20
2009,10,30,01,32,7.20
2009,10,30,01,33,7.20
2009,10,30,01,34,7.30
2009,10,30,01,35,7.30
2009,10,30,01,36,7.30
2009,10,30,01,37,7.30
2009,10,30,01,38,7.30
2009,10,30,01,39,7.30
2009,10,30,01,40,7.30
2009,10,30,01,41,7.30
2009,10,30,01,42,7.30
2009,10,30,01,43,7.30
2009,10,30,01,44,7.30
2009,10,30,01,45,7.30
2009,10,30,01,46,7.30
2009,10,30,01,47,7.30
2009,10,30,01,48,7.30
2009,10,30,01,49,7.30
2009,10,30,01,50,7.30
2009,10,30,01,51,7.30
2009,10,30,01,52,7.30
2009,10,30,01,53,7.30
2009,10,30,01,54,7.30
2009,10,30,01,55,7.30
2009,10,30,01,56,7.30
2009,10,30,01,57,7.30
2009,10,30,01,58,7.30
2009,10,30,01,59,7.30
2009,10,30,02,00,7.30
2009,10,30,02,01,7.30
2009,10,30,02,02,7.30
2009,10,30,02,03,7.30
2009,10,30,02,04,7.30
2009,10,30,02,05,7.30
2009,10,30,02,06,7.30
2009,10,30,02,07,7.30
2009,10,30,02,08,7.30
2009,10,30,02,09,7.30
2009,10,30,02,10,7.30
2009,10,30,02,11,7.30
2009,10,30,02,12,7.30
2009,10,30,02,13,7.30
2009,10,30,02,14,7.30
2009,10,30,02,15,7.30
2009,10,30,02,16,7.30
2009,10,30,02,17,7.30
2009,10,30,02,18,7.30
2009,10,30,02,19,7.40
2009,10,30,02,20,7.40
2009,10,30,02,21,7.40
2009,10,30,02,22,7.40
2009,10,30,02,23,7.40
2009,10,30,02,24,7.40
2009,10,30,02,25,7.40
2009,10,30,02,26,7.40
2009,10,30,02,27,7.40
2009,10,30,02,28,7.40
2009,10,30,02,29,7.40
2009,10,30,02,30,7.40
2009,10,30,02,31,7.40
2009,10,30,02,32,7.40
2009,10,30,02,33,7.40
2009,10,30,02,34,7.40
2009,10,30,02,35,7.40
2009,10,30,02,36,7.40
2009,10,30,02,37,7.40
2009,10,30,02,38,7.50
2009,10,30,02,39,7.50
2009,10,30,02,40,7.50
2009,10,30,02,41,7.50
2009,10,30,02,42,7.50
2009,10,30,02,43,7.50
2009,10,30,02,44,7.50
2009,10,30,02,45,7.40
2009,10,30,02,46,7.40
2009,10,30,02,47,7.40
2009,10,30,02,48,7.40
2009,10,30,02,49,7.40
2009,10,30,02,50,7.40
2009,10,30,02,51,7.40
2009,10,30,02,52,7.50
2009,10,30,02,53,7.50
2009,10,30,02,54,7.50
2009,10,30,02,55,7.50
2009,10,30,02,56,7.50
2009,10,30,02,57,7.50
2009,10,30,02,58,7.50
2009,10,30,02,59,7.50
2009,10,30,03,00,7.60
2009,10,30,03,01,7.60
2009,10,30,03,02,7.60
2009,10,30,03,03,7.60
2009,10,30,03,04,7.60
2009,10,30,03,05,7.60
2009,10,30,03,06,7.60
2009,10,30,03,07,7.60
2009,10,30,03,08,7.60
2009,10,30,03,09,7.60
2009,10,30,03,10,7.60
2009,10,30,03,11,7.60
2009,10,30,03,12,7.60
2009,10,30,03,13,7.60
2009,10,30,03,14,7.60
2009,10,30,03,15,7.60
2009,10,30,03,16,7.60
2009,10,30,03,17,7.60
2009,10,30,03,18,7.60
2009,10,30,03,19,7.60
2009,10,30,03,20,7.60
2009,10,30,03,21,7.60
2009,10,30,03,22,7.70
2009,10,30,03,23,7.70
2009,10,30,03,24,7.70
2009,10,30,03,25,7.70
2009,10,30,03,26,7.70
2009,10,30,03,27,7.70
2009,10,30,03,28,7.70
2009,10,30,03,29,7.70
2009,10,30,03,30,7.70
2009,10,30,03,31,7.70
2009,10,30,03,32,7.70
2009,10,30,03,33,7.70
2009,10,30,03,34,7.70
2009,10,30,03,35,7.70
2009,10,30,03,36,7.70
2009,10,30,03,37,7.70
2009,10,30,03,38,7.80
2009,10,30,03,39,7.80
2009,10,30,03,40,7.80
2009,10,30,03,41,7.80
2009,10,30,03,42,7.90
2009,10,30,03,43,7.90
2009,10,30,03,44,8.00
2009,10,30,03,45,8.10
2009,10,30,03,46,8.10
2009,10,30,03,47,8.10
2009,10,30,03,48,8.10
2009,10,30,03,49,8.10
2009,10,30,03,50,8.20
2009,10,30,03,51,8.30
2009,10,30,03,52,8.40
2009,10,30,03,53,8.40
2009,10,30,03,54,8.30
2009,10,30,03,55,8.30
2009,10,30,03,56,8.30
2009,10,30,03,57,8.30
2009,10,30,03,58,8.20
2009,10,30,03,59,8.20
2009,10,30,04,00,8.20
2009,10,30,04,01,8.20
2009,10,30,04,02,8.20
2009,10,30,04,03,8.20
2009,10,30,04,05,8.20
2009,10,30,04,06,8.20
2009,10,30,04,07,8.20
2009,10,30,04,08,8.10
2009,10,30,04,09,8.10
2009,10,30,04,10,8.10
2009,10,30,04,11,8.20
2009,10,30,04,12,8.20
2009,10,30,04,13,8.20
2009,10,30,04,14,8.30
2009,10,30,04,15,8.30
2009,10,30,04,16,8.40
2009,10,30,04,17,8.50
2009,10,30,04,18,8.60
2009,10,30,04,19,8.70
2009,10,30,04,20,8.80
2009,10,30,04,21,8.80
2009,10,30,04,22,9.00
2009,10,30,04,23,9.30
2009,10,30,04,24,9.60
2009,10,30,04,25,9.70
2009,10,30,04,26,9.90
2009,10,30,04,27,10.00
2009,10,30,04,28,10.10
2009,10,30,04,29,10.20
2009,10,30,04,30,10.30
2009,10,30,04,31,10.30
2009,10,30,04,32,10.30
2009,10,30,04,33,10.40
2009,10,30,04,34,10.40
2009,10,30,04,35,10.50
2009,10,30,04,36,10.50
2009,10,30,04,37,10.60
2009,10,30,04,38,10.60
2009,10,30,04,39,10.60
2009,10,30,04,40,10.60
2009,10,30,04,41,10.60
2009,10,30,04,42,10.70
2009,10,30,04,43,10.70
2009,10,30,04,44,10.70
2009,10,30,04,45,10.70
2009,10,30,04,46,10.70
2009,10,30,04,47,10.70
2009,10,30,04,48,10.70
2009,10,30,04,49,10.70
2009,10,30,04,50,10.70
2009,10,30,04,51,10.70
2009,10,30,04,52,10.70
2009,10,30,04,53,10.70
2009,10,30,04,54,10.70
2009,10,30,04,55,10.80
2009,10,30,04,56,10.80
2009,10,30,04,57,10.80
2009,10,30,04,58,10.80
2009,10,30,04,59,10.80
2009,10,30,05,00,10.80
2009,10,30,05,01,10.80
2009,10,30,05,02,10.90
2009,10,30,05,03,10.90
2009,10,30,05,04,10.90
2009,10,30,05,05,11.00
2009,10,30,05,06,11.00
2009,10,30,05,07,11.10
2009,10,30,05,08,11.10
2009,10,30,05,09,11.10
2009,10,30,05,10,11.20
2009,10,30,05,11,11.20
2009,10,30,05,12,11.20
2009,10,30,05,13,11.20
2009,10,30,05,14,11.20
2009,10,30,05,15,11.30
2009,10,30,05,16,11.30
2009,10,30,05,17,11.30
2009,10,30,05,18,11.30
2009,10,30,05,19,11.30
2009,10,30,05,20,11.40
2009,10,30,05,21,11.40
2009,10,30,05,22,11.40
2009,10,30,05,23,11.40
2009,10,30,05,24,11.40
2009,10,30,05,25,11.40
2009,10,30,05,26,11.50
2009,10,30,05,27,11.50
2009,10,30,05,28,11.60
2009,10,30,05,29,11.60
2009,10,30,05,30,11.60
2009,10,30,05,31,11.60
2009,10,30,05,32,11.70
2009,10,30,05,33,11.70
2009,10,30,05,34,11.70
2009,10,30,05,35,11.70
2009,10,30,05,36,11.80
2009,10,30,05,37,11.80
2009,10,30,05,38,11.80
2009,10,30,05,39,11.90
2009,10,30,05,40,11.90
2009,10,30,05,41,11.90
2009,10,30,05,42,12.00
2009,10,30,05,43,12.00
2009,10,30,05,44,12.00
2009,10,30,05,45,12.10
2009,10,30,05,46,12.10
2009,10,30,05,47,12.10
2009,10,30,05,48,12.10
2009,10,30,05,49,12.10
2009,10,30,05,50,12.20
2009,10,30,05,51,12.20
2009,10,30,05,52,12.20
2009,10,30,05,53,12.20
2009,10,30,05,54,12.30
2009,10,30,05,55,12.30
2009,10,30,05,56,12.30
2009,10,30,05,57,12.30
2009,10,30,05,58,12.30
2009,10,30,05,59,12.40
2009,10,30,06,00,12.40
2009,10,30,06,01,12.40
2009,10,30,06,02,12.50
2009,10,30,06,03,12.50
2009,10,30,06,04,12.50
2009,10,30,06,05,12.50
2009,10,30,06,06,12.60
2009,10,30,06,07,12.60
2009,10,30,06,08,12.60
2009,10,30,06,09,12.60
2009,10,30,06,10,12.60
2009,10,30,06,11,12.60
2009,10,30,06,12,12.60
2009,10,30,06,13,12.70
2009,10,30,06,14,12.70
2009,10,30,06,15,12.70
2009,10,30,06,16,12.70
2009,10,30,06,17,12.60
2009,10,30,06,18,12.70
2009,10,30,06,19,12.70
2009,10,30,06,20,12.70
2009,10,30,06,21,12.70
2009,10,30,06,22,12.70
2009,10,30,06,23,12.70
2009,10,30,06,24,12.70
2009,10,30,06,25,12.70
2009,10,30,06,26,12.70
2009,10,30,06,27,12.70
2009,10,30,06,28,12.70
2009,10,30,06,29,12.70
2009,10,30,06,30,12.70
2009,10,30,06,31,12.70
2009,10,30,06,32,12.70
2009,10,30,06,33,12.70
2009,10,30,06,34,12.70
2009,10,30,06,35,12.70
2009,10,30,06,36,12.70
2009,10,30,06,37,12.70
2009,10,30,06,38,12.70
2009,10,30,06,39,12.70
2009,10,30,06,40,12.80
2009,10,30,06,41,12.80
2009,10,30,06,42,12.80
2009,10,30,06,43,12.80
2009,10,30,06,44,12.80
2009,10,30,06,45,12.80
2009,10,30,06,46,12.80
2009,10,30,06,47,12.80
2009,10,30,06,48,12.80
2009,10,30,06,49,12.80
2009,10,30,06,50,12.90
2009,10,30,06,51,12.90
2009,10,30,06,52,12.90
2009,10,30,06,53,12.90
2009,10,30,06,54,12.90
2009,10,30,06,55,12.90
2009,10,30,06,56,12.90
2009,10,30,06,57,12.90
2009,10,30,06,58,12.90
2009,10,30,06,59,12.90
2009,10,30,07,00,12.90
2009,10,30,07,01,12.90
2009,10,30,07,02,12.90
2009,10,30,07,03,12.90
2009,10,30,07,04,12.90
2009,10,30,07,05,12.90
2009,10,30,07,06,12.90
2009,10,30,07,07,12.90
2009,10,30,07,08,12.90
2009,10,30,07,09,12.90
2009,10,30,07,10,12.90
2009,10,30,07,11,12.90
2009,10,30,07,12,12.90
2009,10,30,07,13,12.90
2009,10,30,07,14,12.90
2009,10,30,07,15,12.90
2009,10,30,07,16,12.90
2009,10,30,07,17,12.90
2009,10,30,07,18,12.90
2009,10,30,07,19,12.80
2009,10,30,07,20,12.80
2009,10,30,07,21,12.80
2009,10,30,07,22,12.70
2009,10,30,07,23,12.80
2009,10,30,07,24,12.80
2009,10,30,07,25,12.80
2009,10,30,07,26,12.80
2009,10,30,07,27,12.90
2009,10,30,07,28,12.90
2009,10,30,07,29,12.90
2009,10,30,07,30,12.90
2009,10,30,07,31,12.90
2009,10,30,07,32,12.90
2009,10,30,07,33,12.90
2009,10,30,07,34,13.00
2009,10,30,07,35,13.00
2009,10,30,07,36,13.00
2009,10,30,07,37,13.00
2009,10,30,07,38,12.90
2009,10,30,07,39,12.90
2009,10,30,07,40,12.90
2009,10,30,07,41,12.90
2009,10,30,07,42,12.90
2009,10,30,07,43,12.90
2009,10,30,07,44,12.90
2009,10,30,07,45,12.90
2009,10,30,07,46,12.90
2009,10,30,07,47,12.90
2009,10,30,07,48,12.90
2009,10,30,07,49,12.90
2009,10,30,07,50,13.00
2009,10,30,07,51,13.00
2009,10,30,07,52,13.00
2009,10,30,07,53,12.90
2009,10,30,07,54,12.90
2009,10,30,07,55,13.00
2009,10,30,07,56,13.00
2009,10,30,07,57,13.00
2009,10,30,07,58,12.90
2009,10,30,07,59,13.00
2009,10,30,08,00,13.00
2009,10,30,08,01,12.90
2009,10,30,08,02,12.90
2009,10,30,08,03,12.90
2009,10,30,08,04,12.90
2009,10,30,08,05,12.90
2009,10,30,08,06,12.90
2009,10,30,08,07,12.90
2009,10,30,08,08,12.90
2009,10,30,08,09,12.90
2009,10,30,08,10,12.90
2009,10,30,08,11,12.90
2009,10,30,08,12,12.80
2009,10,30,08,13,12.80
2009,10,30,08,14,12.80
2009,10,30,08,15,12.80
2009,10,30,08,16,12.80
2009,10,30,08,17,12.80
2009,10,30,08,18,12.80
2009,10,30,08,19,12.70
2009,10,30,08,20,12.70
2009,10,30,08,21,12.70
2009,10,30,08,22,12.70
2009,10,30,08,23,12.70
2009,10,30,08,24,12.70
2009,10,30,08,25,12.70
2009,10,30,08,26,12.70
2009,10,30,08,27,12.70
2009,10,30,08,28,12.70
2009,10,30,08,29,12.70
2009,10,30,08,30,12.70
2009,10,30,08,31,12.70
2009,10,30,08,32,12.70
2009,10,30,08,33,12.70
2009,10,30,08,34,12.70
2009,10,30,08,35,12.70
2009,10,30,08,36,12.70
2009,10,30,08,37,12.70
2009,10,30,08,38,12.70
2009,10,30,08,39,12.80
2009,10,30,08,40,12.80
2009,10,30,08,41,12.80
2009,10,30,08,42,12.80
2009,10,30,08,43,12.80
2009,10,30,08,44,12.80
2009,10,30,08,45,12.80
2009,10,30,08,46,12.70
2009,10,30,08,47,12.70
2009,10,30,08,48,12.70
2009,10,30,08,49,12.70
2009,10,30,08,50,12.70
2009,10,30,08,51,12.60
2009,10,30,08,52,12.60
2009,10,30,08,53,12.60
2009,10,30,08,54,12.60
2009,10,30,08,55,12.60
2009,10,30,08,56,12.50
2009,10,30,08,57,12.50
2009,10,30,08,58,12.50
2009,10,30,08,59,12.50
2009,10,30,09,00,12.40
2009,10,30,09,01,12.40
2009,10,30,09,02,12.40
2009,10,30,09,03,12.40
2009,10,30,09,04,12.40
2009,10,30,09,05,12.40
2009,10,30,09,06,12.30
2009,10,30,09,07,12.30
2009,10,30,09,08,12.30
2009,10,30,09,09,12.30
2009,10,30,09,10,12.20
2009,10,30,09,11,12.20
2009,10,30,09,12,12.20
2009,10,30,09,13,12.20
2009,10,30,09,14,12.20
2009,10,30,09,15,12.20
2009,10,30,09,16,12.10
2009,10,30,09,17,12.10
2009,10,30,09,18,12.10
2009,10,30,09,19,12.10
2009,10,30,09,20,12.10
2009,10,30,09,21,12.10
2009,10,30,09,22,12.10
2009,10,30,09,23,12.10
2009,10,30,09,24,12.10
2009,10,30,09,25,12.10
2009,10,30,09,26,12.10
2009,10,30,09,27,12.10
2009,10,30,09,28,12.10
2009,10,30,09,29,12.10
2009,10,30,09,30,12.10
2009,10,30,09,31,12.10
2009,10,30,09,32,12.10
2009,10,30,09,33,12.10
2009,10,30,09,34,12.10
2009,10,30,09,35,12.10
2009,10,30,09,36,12.10
2009,10,30,09,37,12.10
2009,10,30,09,38,12.10
2009,10,30,09,39,12.10
2009,10,30,09,40,12.10
2009,10,30,09,41,12.10
2009,10,30,09,42,12.00
2009,10,30,09,43,12.00
2009,10,30,09,44,12.00
2009,10,30,09,45,12.00
2009,10,30,09,46,12.00
2009,10,30,09,47,12.00
2009,10,30,09,48,12.00
2009,10,30,09,49,12.00
2009,10,30,09,50,11.90
2009,10,30,09,51,12.00
2009,10,30,09,52,11.90
2009,10,30,09,53,11.90
2009,10,30,09,54,11.90
2009,10,30,09,55,11.90
2009,10,30,09,56,12.00
2009,10,30,09,57,12.00
2009,10,30,09,58,11.90
2009,10,30,09,59,11.90
2009,10,30,10,00,11.90
2009,10,30,10,01,11.90
2009,10,30,10,02,11.90
2009,10,30,10,03,11.90
2009,10,30,10,04,11.90
2009,10,30,10,05,11.90
2009,10,30,10,06,12.00
2009,10,30,10,07,12.00
2009,10,30,10,08,12.10
2009,10,30,10,09,12.20
2009,10,30,10,10,12.20
2009,10,30,10,11,12.30
2009,10,30,10,12,12.30
2009,10,30,10,13,12.40
2009,10,30,10,14,12.40
2009,10,30,10,15,12.40
2009,10,30,10,16,12.40
2009,10,30,10,17,12.50
2009,10,30,10,18,12.50
2009,10,30,10,19,12.50
2009,10,30,10,20,12.50
2009,10,30,10,21,12.60
2009,10,30,10,22,12.60
2009,10,30,10,23,12.60
2009,10,30,10,24,12.60
2009,10,30,10,25,12.60
2009,10,30,10,26,12.60
2009,10,30,10,27,12.60
2009,10,30,10,28,12.60
2009,10,30,10,29,12.60
2009,10,30,10,30,12.60
2009,10,30,10,31,12.60
2009,10,30,10,32,12.60
2009,10,30,10,33,12.60
2009,10,30,10,34,12.60
2009,10,30,10,35,12.60
2009,10,30,10,36,12.60
2009,10,30,10,37,12.60
2009,10,30,10,38,12.60
2009,10,30,10,39,12.70
2009,10,30,10,40,12.70
2009,10,30,10,41,12.70
2009,10,30,10,42,12.70
2009,10,30,10,43,12.70
2009,10,30,10,44,12.80
2009,10,30,10,45,12.80
2009,10,30,10,46,12.80
2009,10,30,10,47,12.80
2009,10,30,10,48,12.90
2009,10,30,10,49,12.80
2009,10,30,10,50,12.80
2009,10,30,10,51,12.80
2009,10,30,10,52,12.70
2009,10,30,10,53,12.70
2009,10,30,10,54,12.70
2009,10,30,10,55,12.70
2009,10,30,10,56,12.70
2009,10,30,10,57,12.60
2009,10,30,10,58,12.60
2009,10,30,10,59,12.60
2009,10,30,11,00,12.60
2009,10,30,11,01,12.60
2009,10,30,11,02,12.60
2009,10,30,11,03,12.60
2009,10,30,11,04,12.60
2009,10,30,11,05,12.60
2009,10,30,11,06,12.60
2009,10,30,11,07,12.60
2009,10,30,11,08,12.60
2009,10,30,11,09,12.60
2009,10,30,11,10,12.60
2009,10,30,11,11,12.60
2009,10,30,11,12,12.60
2009,10,30,11,13,12.60
2009,10,30,11,14,12.60
2009,10,30,11,15,12.60
2009,10,30,11,16,12.60
2009,10,30,11,17,12.60
2009,10,30,11,18,12.60
2009,10,30,11,19,12.60
2009,10,30,11,20,12.60
2009,10,30,11,21,12.60
2009,10,30,11,22,12.60
2009,10,30,11,23,12.60
2009,10,30,11,24,12.60
2009,10,30,11,25,12.60
2009,10,30,11,26,12.60
2009,10,30,11,27,12.60
2009,10,30,11,28,12.60
2009,10,30,11,29,12.60
2009,10,30,11,30,12.60
2009,10,30,11,31,12.60
2009,10,30,11,32,12.60
2009,10,30,11,33,12.60
2009,10,30,11,34,12.60
2009,10,30,11,35,12.60
2009,10,30,11,36,12.60
2009,10,30,11,37,12.60
2009,10,30,11,38,12.60
2009,10,30,11,39,12.60
2009,10,30,11,40,12.60
2009,10,30,11,41,12.60
2009,10,30,11,42,12.60
2009,10,30,11,43,12.70
2009,10,30,11,44,12.70
2009,10,30,11,45,12.80
2009,10,30,11,46,12.90
2009,10,30,11,47,12.90
2009,10,30,11,48,13.00
2009,10,30,11,49,13.10
2009,10,30,11,50,13.20
2009,10,30,11,51,13.20
2009,10,30,11,52,13.30
2009,10,30,11,53,13.30
2009,10,30,11,54,13.30
2009,10,30,11,55,13.40
2009,10,30,11,56,13.40
2009,10,30,11,57,13.40
2009,10,30,11,58,13.40
2009,10,30,11,59,13.40
2009,10,30,12,00,13.50
2009,10,30,12,01,13.60
2009,10,30,12,02,13.60
2009,10,30,12,03,13.60
2009,10,30,12,04,13.60
2009,10,30,12,05,13.70
2009,10,30,12,06,13.70
2009,10,30,12,07,13.70
2009,10,30,12,08,13.70
2009,10,30,12,09,13.80
2009,10,30,12,10,13.80
2009,10,30,12,11,13.80
2009,10,30,12,12,13.80
2009,10,30,12,13,13.80
2009,10,30,12,14,13.80
2009,10,30,12,15,13.80
2009,10,30,12,16,13.80
2009,10,30,12,17,13.80
2009,10,30,12,18,13.80
2009,10,30,12,19,13.80
2009,10,30,12,20,13.80
2009,10,30,12,21,13.80
2009,10,30,12,22,13.80
2009,10,30,12,23,13.80
2009,10,30,12,24,13.80
2009,10,30,12,25,13.80
2009,10,30,12,26,13.80
2009,10,30,12,27,13.80
2009,10,30,12,28,13.80
2009,10,30,12,29,13.80
2009,10,30,12,30,13.80
2009,10,30,12,31,13.80
2009,10,30,12,32,13.70
2009,10,30,12,33,13.80
2009,10,30,12,34,13.80
2009,10,30,12,35,13.70
2009,10,30,12,36,13.80
2009,10,30,12,37,13.80
2009,10,30,12,38,13.70
2009,10,30,12,39,13.70
2009,10,30,12,40,13.70
2009,10,30,12,41,13.70
2009,10,30,12,42,13.80
2009,10,30,12,43,13.80
2009,10,30,12,44,13.80
2009,10,30,12,45,13.80
2009,10,30,12,46,13.80
2009,10,30,12,47,13.70
2009,10,30,12,48,13.70
2009,10,30,12,49,13.80
2009,10,30,12,50,13.80
2009,10,30,12,51,13.70
2009,10,30,12,52,13.70
2009,10,30,12,53,13.70
2009,10,30,12,54,13.70
2009,10,30,12,55,13.70
2009,10,30,12,56,13.70
2009,10,30,12,57,13.70
2009,10,30,12,58,13.80
2009,10,30,12,59,13.80
2009,10,30,13,00,13.80
2009,10,30,13,01,13.80
2009,10,30,13,02,13.80
2009,10,30,13,03,13.80
2009,10,30,13,04,13.80
2009,10,30,13,05,13.80
2009,10,30,13,06,13.80
2009,10,30,13,07,13.90
2009,10,30,13,08,13.90
2009,10,30,13,09,13.90
2009,10,30,13,10,13.90
2009,10,30,13,11,13.90
2009,10,30,13,12,13.90
2009,10,30,13,13,13.90
2009,10,30,13,14,13.90
2009,10,30,13,15,13.90
2009,10,30,13,16,13.90
2009,10,30,13,17,13.90
2009,10,30,13,18,14.00
2009,10,30,13,19,14.00
2009,10,30,13,20,14.10
2009,10,30,13,21,14.10
2009,10,30,13,22,14.20
2009,10,30,13,23,14.20
2009,10,30,13,24,14.20
2009,10,30,13,25,14.30
2009,10,30,13,26,14.30
2009,10,30,13,27,14.30
2009,10,30,13,28,14.30
2009,10,30,13,29,14.30
2009,10,30,13,30,14.30
2009,10,30,13,31,14.30
2009,10,30,13,32,14.30
2009,10,30,13,33,14.30
2009,10,30,13,34,14.30
2009,10,30,13,35,14.30
2009,10,30,13,36,14.30
2009,10,30,13,37,14.30
2009,10,30,13,38,14.30
2009,10,30,13,39,14.30
2009,10,30,13,40,14.20
2009,10,30,13,41,14.30
2009,10,30,13,42,14.30
2009,10,30,13,43,14.30
2009,10,30,13,44,14.30
2009,10,30,13,45,14.30
2009,10,30,13,46,14.30
2009,10,30,13,47,14.30
2009,10,30,13,48,14.30
2009,10,30,13,49,14.30
2009,10,30,13,50,14.30
2009,10,30,13,51,14.40
2009,10,30,13,52,14.40
2009,10,30,13,53,14.50
2009,10,30,13,54,14.50
2009,10,30,13,55,14.60
2009,10,30,13,56,14.70
2009,10,30,13,57,14.70
2009,10,30,13,58,14.70
2009,10,30,13,59,14.70
2009,10,30,14,00,14.70
2009,10,30,14,01,14.80
2009,10,30,14,02,14.80
2009,10,30,14,03,14.80
2009,10,30,14,04,14.80
2009,10,30,14,05,14.80
2009,10,30,14,06,14.80
2009,10,30,14,07,14.80
2009,10,30,14,08,14.80
2009,10,30,14,09,14.80
2009,10,30,14,10,14.80
2009,10,30,14,11,14.80
2009,10,30,14,12,14.90
2009,10,30,14,13,14.90
2009,10,30,14,14,14.90
2009,10,30,14,15,14.90
2009,10,30,14,16,14.90
2009,10,30,14,17,14.90
2009,10,30,14,18,14.90
2009,10,30,14,19,14.90
2009,10,30,14,20,14.80
2009,10,30,14,21,14.80
2009,10,30,14,22,14.80
2009,10,30,14,23,14.80
2009,10,30,14,24,14.80
2009,10,30,14,25,14.70
2009,10,30,14,26,14.70
2009,10,30,14,27,14.70
2009,10,30,14,28,14.70
2009,10,30,14,29,14.70
2009,10,30,14,30,14.70
2009,10,30,14,31,14.70
2009,10,30,14,32,14.70
2009,10,30,14,33,14.70
2009,10,30,14,34,14.70
2009,10,30,14,35,14.70
2009,10,30,14,36,14.70
2009,10,30,14,37,14.70
2009,10,30,14,38,14.70
2009,10,30,14,39,14.70
2009,10,30,14,40,14.70
2009,10,30,14,41,14.70
2009,10,30,14,42,14.70
2009,10,30,14,43,14.60
2009,10,30,14,44,14.60
2009,10,30,14,45,14.60
2009,10,30,14,46,14.60
2009,10,30,14,47,14.60
2009,10,30,14,48,14.60
2009,10,30,14,49,14.60
2009,10,30,14,50,14.60
2009,10,30,14,51,14.60
2009,10,30,14,52,14.60
2009,10,30,14,53,14.70
2009,10,30,14,54,14.60
2009,10,30,14,55,14.60
2009,10,30,14,56,14.60
2009,10,30,14,57,14.60
2009,10,30,14,58,14.60
2009,10,30,14,59,14.60
2009,10,30,15,00,14.50
2009,10,30,15,01,14.50
2009,10,30,15,02,14.40
2009,10,30,15,03,14.40
2009,10,30,15,04,14.50
2009,10,30,15,05,14.50
2009,10,30,15,06,14.40
2009,10,30,15,07,14.40
2009,10,30,15,08,14.40
2009,10,30,15,09,14.40
2009,10,30,15,10,14.40
2009,10,30,15,11,14.40
2009,10,30,15,12,14.40
2009,10,30,15,13,14.40
2009,10,30,15,14,14.40
2009,10,30,15,15,14.40
2009,10,30,15,16,14.40
2009,10,30,15,17,14.40
2009,10,30,15,18,14.40
2009,10,30,15,19,14.40
2009,10,30,15,20,14.40
2009,10,30,15,21,14.50
2009,10,30,15,22,14.50
2009,10,30,15,23,14.50
2009,10,30,15,24,14.50
2009,10,30,15,25,14.50
2009,10,30,15,26,14.40
2009,10,30,15,27,14.50
2009,10,30,15,28,14.50
2009,10,30,15,29,14.50
2009,10,30,15,30,14.50
2009,10,30,15,31,14.50
2009,10,30,15,32,14.60
2009,10,30,15,33,14.60
2009,10,30,15,34,14.60
2009,10,30,15,35,14.70
2009,10,30,15,36,14.70
2009,10,30,15,37,14.80
2009,10,30,15,38,14.80
2009,10,30,15,39,14.70
2009,10,30,15,40,14.70
2009,10,30,15,41,14.70
2009,10,30,15,42,14.60
2009,10,30,15,43,14.60
2009,10,30,15,44,14.50
2009,10,30,15,45,14.50
2009,10,30,15,46,14.40
2009,10,30,15,47,14.40
2009,10,30,15,48,14.40
2009,10,30,15,49,14.40
2009,10,30,15,50,14.40
2009,10,30,15,51,14.40
2009,10,30,15,52,14.40
2009,10,30,15,53,14.30
2009,10,30,15,54,14.30
2009,10,30,15,55,14.30
2009,10,30,15,56,14.30
2009,10,30,15,57,14.30
2009,10,30,15,58,14.30
2009,10,30,15,59,14.30
2009,10,30,16,00,14.30
2009,10,30,16,01,14.20
2009,10,30,16,02,14.20
2009,10,30,16,03,14.20
2009,10,30,16,04,14.10
2009,10,30,16,05,14.00
2009,10,30,16,06,14.00
2009,10,30,16,07,14.00
2009,10,30,16,08,13.90
2009,10,30,16,09,13.90
2009,10,30,16,10,13.90
2009,10,30,16,11,13.90
2009,10,30,16,12,13.90
2009,10,30,16,13,13.90
2009,10,30,16,14,13.90
2009,10,30,16,15,13.80
2009,10,30,16,16,13.80
2009,10,30,16,17,13.80
2009,10,30,16,18,13.70
2009,10,30,16,19,13.70
2009,10,30,16,20,13.60
2009,10,30,16,21,13.60
2009,10,30,16,22,13.50
2009,10,30,16,23,13.50
2009,10,30,16,24,13.50
2009,10,30,16,25,13.50
2009,10,30,16,26,13.50
2009,10,30,16,27,13.60
2009,10,30,16,28,13.60
2009,10,30,16,29,13.60
2009,10,30,16,30,13.60
2009,10,30,16,31,13.60
2009,10,30,16,32,13.60
2009,10,30,16,33,13.50
2009,10,30,16,34,13.50
2009,10,30,16,35,13.50
2009,10,30,16,36,13.40
2009,10,30,16,37,13.40
2009,10,30,16,38,13.40
2009,10,30,16,39,13.40
2009,10,30,16,40,13.40
2009,10,30,16,41,13.40
2009,10,30,16,42,13.40
2009,10,30,16,43,13.40
2009,10,30,16,44,13.40
2009,10,30,16,45,13.40
2009,10,30,16,46,13.40
2009,10,30,16,47,13.40
2009,10,30,16,48,13.30
2009,10,30,16,49,13.20
2009,10,30,16,50,13.20
2009,10,30,16,51,13.10
2009,10,30,16,52,13.10
2009,10,30,16,53,13.10
2009,10,30,16,54,13.10
2009,10,30,16,55,13.10
2009,10,30,16,56,13.00
2009,10,30,16,57,12.90
2009,10,30,16,58,12.90
2009,10,30,16,59,12.80
2009,10,30,17,00,12.80
2009,10,30,17,01,12.80
2009,10,30,17,02,12.90
2009,10,30,17,03,12.90
2009,10,30,17,04,12.90
2009,10,30,17,05,12.90
2009,10,30,17,06,12.90
2009,10,30,17,07,12.90
2009,10,30,17,08,12.90
2009,10,30,17,09,12.90
2009,10,30,17,10,12.90
2009,10,30,17,11,13.00
2009,10,30,17,12,13.10
2009,10,30,17,13,13.10
2009,10,30,17,14,13.10
2009,10,30,17,15,13.10
2009,10,30,17,16,13.10
2009,10,30,17,17,13.00
2009,10,30,17,18,12.90
2009,10,30,17,19,12.90
2009,10,30,17,20,12.80
2009,10,30,17,21,12.80
2009,10,30,17,22,12.80
2009,10,30,17,23,12.80
2009,10,30,17,24,12.80
2009,10,30,17,25,12.80
2009,10,30,17,26,12.80
2009,10,30,17,27,12.70
2009,10,30,17,28,12.70
2009,10,30,17,29,12.70
2009,10,30,17,30,12.60
2009,10,30,17,31,12.60
2009,10,30,17,32,12.60